Hickory, NC

12:20 PM EST on December 03, 2016 (GMT -0500)
Hickory Regional

Weather History for KHKY - March, 2013

Change the Weather History Date:

Friday, March 22, 2013

  Actual Average Record
Temperature  
Mean Temperature 36 °F -  
Max Temperature 51 °F 61 °F 80 °F (1991)
Min Temperature 23 °F 40 °F 23 °F (1954)
Degree Days  
Heating Degree Days 28    
Moisture  
Dew Point 15 °F    
Average Humidity 42    
Maximum Humidity 63    
Minimum Humidity 25    
Precipitation  
Precipitation 0.00 in - - ()
Sea Level Pressure  
Sea Level Pressure 29.98 in    
Wind  
Wind Speed 4 mph (SSW)    
Max Wind Speed 10 mph    
Max Gust Speed 16 mph    
Visibility 10 miles    
Events      
Averages and records for this station are not official NWS values.
T = Trace of Precipitation, MM = Missing Value Source: NWS Daily Summary

Daily Weather History Graph

Daily Weather History Graph

Search for Another Location

Airport or City:

Trip Planner

Search our weather history database for the weather conditions in past years. The results will help you decide how hot, cold, wet, or windy it might be!

Date:

Astronomy

Mar. 22, 2013 Rise Set
Actual Time 7:25 AM EDT 7:39 PM EDT
Civil Twilight 7:00 AM EDT 8:04 PM EDT
Nautical Twilight 6:30 AM EDT 8:34 PM EDT
Astronomical Twilight 6:00 AM EDT 9:04 PM EDT
Moon 3:12 PM EDT (3/22) 4:17 AM EDT (3/22)
Length of Visible Light 13h 04m
Length of Day
12h 13m
Waxing Gibbous, 77% of the Moon is Illuminated
Mar 22
Waxing Gibbous
Mar 27
Full
Apr 3
Last Quarter
Apr 10
New
Apr 18
First Quarter

Hourly Weather History & Observations

Time (EDT) Temp. Windchill Dew Point Humidity Pressure Visibility Wind Dir Wind Speed Gust Speed Precip Events Conditions
12:53 AM 28.0 °F 24.2 °F 12.0 °F 51% 29.95 in 10.0 mi NNE 3.5 mph - N/A   Clear
1:53 AM 28.0 °F 20.8 °F 10.9 °F 49% 29.95 in 10.0 mi North 6.9 mph - N/A   Clear
2:53 AM 26.1 °F - 10.9 °F 53% 29.95 in 10.0 mi Calm Calm - N/A   Clear
3:53 AM 25.0 °F - 12.0 °F 58% 29.96 in 10.0 mi Calm Calm - N/A   Clear
4:53 AM 25.0 °F - 12.9 °F 60% 29.96 in 10.0 mi Calm Calm - N/A   Clear
5:53 AM 24.1 °F - 12.9 °F 62% 29.98 in 10.0 mi Calm Calm - N/A   Clear
6:53 AM 23.0 °F - 12.0 °F 63% 30.01 in 10.0 mi Calm Calm - N/A   Clear
7:53 AM 24.1 °F 19.7 °F 12.0 °F 60% 30.04 in 10.0 mi SSW 3.5 mph - N/A   Clear
8:53 AM 28.0 °F 20.8 °F 12.9 °F 53% 30.05 in 10.0 mi South 6.9 mph - N/A   Clear
9:53 AM 33.1 °F 26.9 °F 14.0 °F 46% 30.05 in 10.0 mi WSW 6.9 mph - N/A   Partly Cloudy
10:53 AM 36.0 °F - 14.0 °F 41% 30.04 in 10.0 mi Calm Calm - N/A   Clear
11:53 AM 37.9 °F 34.4 °F 12.9 °F 36% 30.03 in 10.0 mi South 4.6 mph - N/A   Mostly Cloudy
12:53 PM 44.1 °F 40.8 °F 15.1 °F 31% 29.99 in 10.0 mi Variable 5.8 mph - N/A   Clear
1:53 PM 46.0 °F 44.8 °F 15.1 °F 29% 29.97 in 10.0 mi Variable 3.5 mph - N/A   Clear
2:53 PM 48.9 °F - 14.0 °F 25% 29.95 in 10.0 mi Variable 5.8 mph - N/A   Partly Cloudy
3:53 PM 50.0 °F - 15.1 °F 25% 29.93 in 10.0 mi Variable 4.6 mph - N/A   Overcast
4:53 PM 48.9 °F - 16.0 °F 27% 29.94 in 10.0 mi South 8.1 mph 16.1 mph N/A   Overcast
5:53 PM 48.9 °F - 16.0 °F 27% 29.94 in 10.0 mi SSW 10.4 mph - N/A   Overcast
6:53 PM 48.9 °F - 17.1 °F 28% 29.94 in 10.0 mi SSW 6.9 mph - N/A   Overcast
7:53 PM 48.0 °F - 18.0 °F 30% 29.95 in 10.0 mi South 5.8 mph - N/A   Overcast
8:53 PM 45.0 °F 41.2 °F 18.0 °F 34% 29.96 in 10.0 mi SSW 6.9 mph - N/A   Clear
9:53 PM 44.1 °F 39.5 °F 19.0 °F 37% 29.98 in 10.0 mi SSW 8.1 mph - N/A   Mostly Cloudy
10:53 PM 43.0 °F 38.8 °F 19.9 °F 40% 29.98 in 10.0 mi SW 6.9 mph - N/A   Overcast
11:53 PM 43.0 °F 41.3 °F 21.9 °F 43% 29.98 in 10.0 mi SW 3.5 mph - N/A   Overcast